| time (UTC) | temp F | wind direction | speed MPH | gust MPH | rain 1hr in | rain 24hr in | rain mn in | humidity % | barometer mb |
| 20260506081943 | 79 | 183 | 2.0 | 3.0 | 0.00 | 0.00 | 0.00 | 90 | 1005.1 |
| 20260506081443 | 79 | 192 | 2.0 | 4.0 | 0.00 | 0.00 | 0.00 | 90 | 1005.1 |
| 20260506080930 | 79 | 148 | 2.0 | 4.0 | 0.00 | 0.00 | 0.00 | 90 | 1005.1 |
| 20260506073425 | 79 | 149 | 2.0 | 5.0 | 0.00 | 0.00 | 0.00 | 90 | 1005.2 |
| 20260506072925 | 79 | 173 | 2.0 | 6.0 | 0.00 | 0.00 | 0.00 | 90 | 1005.3 |
| 20260506072424 | 79 | 156 | 3.0 | 6.0 | 0.00 | 0.00 | 0.00 | 90 | 1005.3 |
| 20260506071425 | 79 | 183 | 2.0 | 6.0 | 0.00 | 0.00 | 0.00 | 90 | 1005.3 |
| 20260506070926 | 79 | 109 | 3.0 | 7.0 | 0.00 | 0.00 | 0.00 | 90 | 1005.3 |
| 20260506070425 | 79 | 127 | 3.0 | 7.0 | 0.00 | 0.00 | 0.00 | 90 | 1005.3 |
| 20260506062423 | 79 | 113 | 2.0 | 4.0 | 0.00 | 0.00 | 0.00 | 91 | 1005.8 |
| 20260506061922 | 79 | 150 | 2.0 | 4.0 | 0.00 | 0.00 | 0.00 | 91 | 1006.0 |
| 20260506061423 | 79 | 175 | 2.0 | 5.0 | 0.00 | 0.00 | 0.00 | 91 | 1006.0 |
| 20260506060423 | 79 | 104 | 2.0 | 6.0 | 0.00 | 0.00 | 0.00 | 91 | 1006.1 |
| 20260506050917 | 78 | 156 | 3.0 | 7.0 | 0.00 | 0.00 | 0.00 | 92 | 1006.2 |
| 20260506050418 | 78 | 162 | 4.0 | 7.0 | 0.00 | 0.00 | 0.00 | 92 | 1006.2 |
| 20260506044918 | 78 | 124 | 3.0 | 5.0 | 0.00 | 0.00 | 0.00 | 92 | 1006.4 |
| 20260506044419 | 78 | 153 | 3.0 | 6.0 | 0.00 | 0.00 | 0.00 | 92 | 1006.3 |
| 20260506043919 | 78 | 132 | 4.0 | 7.0 | 0.00 | 0.00 | 0.00 | 92 | 1006.3 |
| 20260506043419 | 78 | 102 | 4.0 | 7.0 | 0.00 | 0.00 | 0.00 | 92 | 1006.3 |
| 20260506042415 | 78 | 143 | 4.0 | 7.0 | 0.00 | 0.00 | 0.00 | 92 | 1006.3 |
| 20260506041913 | 78 | 150 | 4.0 | 9.0 | 0.00 | 0.00 | 0.00 | 92 | 1006.2 |
| 20260506041413 | 78 | 137 | 4.0 | 9.0 | 0.00 | 0.00 | 0.00 | 92 | 1006.1 |
| 20260506040912 | 78 | 154 | 3.0 | 5.0 | 0.00 | 0.00 | 0.00 | 92 | 1006.1 |
| 20260506035913 | 78 | 161 | 4.0 | 6.0 | 0.00 | 0.00 | 0.00 | 92 | 1006.1 |
| 20260506035412 | 78 | 147 | 3.0 | 6.0 | 0.00 | 0.00 | 0.00 | 92 | 1006.0 |
| 20260506034913 | 78 | 140 | 3.0 | 6.0 | 0.00 | 0.00 | 0.00 | 92 | 1006.1 |
| 20260506033913 | 78 | 162 | 3.0 | 6.0 | 0.00 | 0.00 | 0.00 | 92 | 1006.0 |
| 20260506033413 | 78 | 163 | 3.0 | 6.0 | 0.00 | 0.00 | 0.00 | 92 | 1005.9 |
| 20260506032914 | 78 | 143 | 4.0 | 6.0 | 0.00 | 0.00 | 0.00 | 92 | 1005.8 |
| 20260506032413 | 78 | 175 | 4.0 | 9.0 | 0.00 | 0.00 | 0.00 | 92 | 1005.7 |
| 20260506031914 | 78 | 165 | 4.0 | 9.0 | 0.00 | 0.00 | 0.00 | 92 | 1005.7 |
| 20260506031413 | 78 | 122 | 4.0 | 9.0 | 0.00 | 0.00 | 0.00 | 91 | 1005.6 |
| 20260506030411 | 78 | 119 | 3.0 | 6.0 | 0.00 | 0.00 | 0.00 | 91 | 1005.5 |
| 20260506025911 | 78 | 137 | 3.0 | 8.0 | 0.00 | 0.00 | 0.00 | 91 | 1005.4 |
| 20260506025411 | 78 | 152 | 4.0 | 10.0 | 0.00 | 0.00 | 0.00 | 91 | 1005.4 |
| 20260506024910 | 78 | 152 | 4.0 | 10.0 | 0.00 | 0.00 | 0.00 | 91 | 1005.4 |
| 20260506024411 | 78 | 164 | 3.0 | 7.0 | 0.00 | 0.00 | 0.00 | 91 | 1005.3 |
| 20260506023911 | 79 | 156 | 3.0 | 7.0 | 0.00 | 0.00 | 0.00 | 91 | 1005.2 |
| 20260506023410 | 79 | 145 | 3.0 | 9.0 | 0.00 | 0.00 | 0.00 | 90 | 1005.1 |
| 20260506022911 | 79 | 144 | 3.0 | 9.0 | 0.00 | 0.00 | 0.00 | 90 | 1005.2 |
| 20260506022411 | 79 | 176 | 3.0 | 8.0 | 0.00 | 0.00 | 0.00 | 90 | 1005.1 |
| 20260506021911 | 79 | 179 | 3.0 | 8.0 | 0.00 | 0.00 | 0.00 | 89 | 1005.0 |
| 20260506021411 | 79 | 114 | 3.0 | 9.0 | 0.00 | 0.00 | 0.00 | 89 | 1005.0 |
| 20260506020911 | 79 | 171 | 4.0 | 9.0 | 0.00 | 0.00 | 0.00 | 89 | 1004.9 |
| 20260506020411 | 79 | 116 | 3.0 | 7.0 | 0.00 | 0.00 | 0.00 | 88 | 1004.8 |
| 20260506015912 | 80 | 185 | 4.0 | 7.0 | 0.00 | 0.00 | 0.00 | 88 | 1004.7 |
| 20260506015412 | 80 | 145 | 4.0 | 8.0 | 0.00 | 0.00 | 0.00 | 88 | 1004.7 |
| 20260506014912 | 80 | 138 | 4.0 | 9.0 | 0.00 | 0.00 | 0.00 | 88 | 1004.6 |
| 20260506014406 | 80 | 129 | 4.0 | 10.0 | 0.00 | 0.00 | 0.00 | 87 | 1004.5 |
| 20260506013406 | 80 | 164 | 4.0 | 9.0 | 0.00 | 0.00 | 0.00 | 87 | 1004.4 |
| 20260506012406 | 80 | 134 | 4.0 | 9.0 | 0.00 | 0.00 | 0.00 | 86 | 1004.2 |
| 20260506011406 | 81 | 122 | 4.0 | 9.0 | 0.00 | 0.00 | 0.00 | 86 | 1004.1 |
| 20260506010906 | 81 | 104 | 4.0 | 9.0 | 0.00 | 0.00 | 0.00 | 86 | 1003.9 |
| 20260506010407 | 81 | 147 | 4.0 | 9.0 | 0.00 | 0.00 | 0.00 | 86 | 1004.0 |
| 20260506005406 | 82 | 106 | 4.0 | 9.0 | 0.00 | 0.00 | 0.00 | 84 | 1003.8 |
| 20260506004906 | 82 | 122 | 4.0 | 9.0 | 0.00 | 0.00 | 0.00 | 84 | 1003.7 |
| 20260506003404 | 82 | 142 | 3.0 | 8.0 | 0.00 | 0.00 | 0.00 | 84 | 1003.7 |
| 20260506002902 | 83 | 195 | 3.0 | 8.0 | 0.00 | 0.00 | 0.00 | 83 | 1003.6 |
| 20260506001903 | 83 | 97 | 4.0 | 11.0 | 0.00 | 0.00 | 0.00 | 83 | 1003.6 |
| 20260506001400 | 83 | 164 | 4.0 | 11.0 | 0.00 | 0.00 | 0.00 | 83 | 1003.6 |
| 20260506000903 | 83 | 122 | 4.0 | 11.0 | 0.00 | 0.00 | 0.00 | 83 | 1003.6 |
| 20260506000401 | 83 | 142 | 5.0 | 10.0 | 0.00 | 0.00 | 0.00 | 83 | 1003.5 |
| 20260505235903 | 83 | 128 | 5.0 | 10.0 | 0.00 | 0.00 | 0.00 | 83 | 1003.6 |
| 20260505235401 | 84 | 121 | 5.0 | 10.0 | 0.00 | 0.00 | 0.00 | 82 | 1003.5 |
| 20260505234401 | 84 | 119 | 4.0 | 13.0 | 0.00 | 0.00 | 0.00 | 81 | 1003.4 |
| 20260505233904 | 84 | 116 | 4.0 | 18.0 | 0.00 | 0.00 | 0.00 | 81 | 1003.3 |
| 20260505232355 | 85 | 118 | 5.0 | 10.0 | 0.00 | 0.00 | 0.00 | 79 | 1003.2 |
| 20260505231857 | 85 | 153 | 5.0 | 13.0 | 0.00 | 0.00 | 0.00 | 78 | 1003.3 |
| 20260505231353 | 85 | 72 | 5.0 | 13.0 | 0.00 | 0.00 | 0.00 | 79 | 1003.2 |
| 20260505225856 | 85 | 135 | 5.0 | 13.0 | 0.00 | 0.00 | 0.00 | 78 | 1003.2 |
| 20260505225351 | 85 | 102 | 5.0 | 9.0 | 0.00 | 0.00 | 0.00 | 77 | 1003.0 |
| 20260505224351 | 86 | 115 | 5.0 | 14.0 | 0.00 | 0.00 | 0.00 | 77 | 1003.1 |
| 20260505223855 | 86 | 97 | 5.0 | 11.0 | 0.00 | 0.00 | 0.00 | 76 | 1003.1 |
| 20260505223352 | 86 | 134 | 6.0 | 11.0 | 0.00 | 0.00 | 0.00 | 77 | 1003.1 |
| 20260505222856 | 85 | 91 | 6.0 | 18.0 | 0.00 | 0.00 | 0.00 | 77 | 1003.1 |
| 20260505222351 | 86 | 96 | 6.0 | 18.0 | 0.00 | 0.00 | 0.00 | 77 | 1003.1 |
| 20260505221855 | 86 | 98 | 5.0 | 11.0 | 0.00 | 0.00 | 0.00 | 76 | 1003.2 |
| 20260505221351 | 87 | 87 | 5.0 | 11.0 | 0.00 | 0.00 | 0.00 | 76 | 1003.2 |
| 20260505220855 | 86 | 113 | 5.0 | 12.0 | 0.00 | 0.00 | 0.00 | 76 | 1003.2 |
| 20260505220352 | 87 | 103 | 5.0 | 12.0 | 0.00 | 0.00 | 0.00 | 76 | 1003.1 |
| 20260505215351 | 86 | 121 | 6.0 | 17.0 | 0.00 | 0.00 | 0.00 | 75 | 1003.4 |
| 20260505214852 | 86 | 125 | 6.0 | 17.0 | 0.00 | 0.00 | 0.00 | 76 | 1003.2 |
| 20260505214351 | 87 | 94 | 6.0 | 13.0 | 0.00 | 0.00 | 0.00 | 76 | 1003.4 |
| 20260505213853 | 87 | 144 | 6.0 | 13.0 | 0.00 | 0.00 | 0.00 | 75 | 1003.5 |
| 20260505212852 | 87 | 138 | 5.0 | 12.0 | 0.00 | 0.00 | 0.00 | 75 | 1003.5 |
| 20260505212351 | 88 | 116 | 5.0 | 12.0 | 0.00 | 0.00 | 0.00 | 74 | 1003.5 |
| 20260505211852 | 87 | 161 | 5.0 | 12.0 | 0.00 | 0.00 | 0.00 | 74 | 1003.6 |
| 20260505210852 | 87 | 128 | 5.0 | 13.0 | 0.00 | 0.00 | 0.00 | 74 | 1003.7 |
| 20260505210351 | 88 | 140 | 5.0 | 11.0 | 0.00 | 0.00 | 0.00 | 73 | 1003.8 |
| 20260505205853 | 88 | 121 | 5.0 | 11.0 | 0.00 | 0.00 | 0.00 | 74 | 1003.9 |
| 20260505205349 | 88 | 174 | 5.0 | 11.0 | 0.00 | 0.00 | 0.00 | 74 | 1003.8 |
| 20260505204850 | 89 | 70 | 5.0 | 13.0 | 0.00 | 0.00 | 0.00 | 72 | 1004.0 |
| 20260505204346 | 89 | 90 | 5.0 | 13.0 | 0.00 | 0.00 | 0.00 | 70 | 1004.1 |
| 20260505203848 | 89 | 139 | 4.0 | 10.0 | 0.00 | 0.00 | 0.00 | 72 | 1004.2 |
| 20260505202848 | 90 | 91 | 4.0 | 10.0 | 0.00 | 0.00 | 0.00 | 69 | 1004.3 |
| 20260505202346 | 90 | 125 | 4.0 | 10.0 | 0.00 | 0.00 | 0.00 | 69 | 1004.4 |
| 20260505201848 | 91 | 150 | 3.0 | 10.0 | 0.00 | 0.00 | 0.00 | 68 | 1004.6 |
| 20260505201346 | 92 | 91 | 3.0 | 10.0 | 0.00 | 0.00 | 0.00 | 65 | 1004.6 |
| 20260505200848 | 93 | 125 | 3.0 | 12.0 | 0.00 | 0.00 | 0.00 | 59 | 1004.7 |
| 20260505200346 | 93 | 193 | 3.0 | 12.0 | 0.00 | 0.00 | 0.00 | 59 | 1004.7 |
| 20260505194848 | 92 | 150 | 3.0 | 9.0 | 0.00 | 0.00 | 0.00 | 60 | 1004.8 |
| 20260505194345 | 91 | 127 | 4.0 | 14.0 | 0.00 | 0.00 | 0.00 | 61 | 1004.8 |
| 20260505193842 | 91 | 125 | 4.0 | 14.0 | 0.00 | 0.00 | 0.00 | 62 | 1004.9 |
| 20260505193342 | 91 | 138 | 5.0 | 14.0 | 0.00 | 0.00 | 0.00 | 61 | 1005.1 |
| 20260505192838 | 90 | 184 | 4.0 | 14.0 | 0.00 | 0.00 | 0.00 | 62 | 1005.1 |
| 20260505192337 | 90 | 59 | 4.0 | 11.0 | 0.00 | 0.00 | 0.00 | 63 | 1005.1 |
| 20260505191838 | 90 | 184 | 4.0 | 11.0 | 0.00 | 0.00 | 0.00 | 62 | 1005.1 |
| 20260505191338 | 90 | 137 | 4.0 | 13.0 | 0.00 | 0.00 | 0.00 | 63 | 1005.1 |
| 20260505190838 | 90 | 175 | 4.0 | 13.0 | 0.00 | 0.00 | 0.00 | 62 | 1005.2 |
| 20260505185338 | 89 | 178 | 4.0 | 12.0 | 0.00 | 0.00 | 0.00 | 64 | 1005.3 |
| 20260505184841 | 89 | 166 | 5.0 | 13.0 | 0.00 | 0.00 | 0.00 | 64 | 1005.4 |
| 20260505184341 | 89 | 156 | 5.0 | 13.0 | 0.00 | 0.00 | 0.00 | 64 | 1005.5 |
| 20260505183840 | 88 | 188 | 6.0 | 13.0 | 0.00 | 0.00 | 0.00 | 66 | 1005.6 |
| 20260505183340 | 88 | 182 | 6.0 | 13.0 | 0.00 | 0.00 | 0.00 | 66 | 1005.7 |
| 20260505182851 | 88 | 173 | 6.0 | 11.0 | 0.00 | 0.00 | 0.00 | 66 | 1005.7 |
| 20260505182337 | 88 | 136 | 6.0 | 12.0 | 0.00 | 0.00 | 0.00 | 67 | 1005.7 |
| 20260505181836 | 88 | 164 | 6.0 | 12.0 | 0.00 | 0.00 | 0.00 | 66 | 1005.7 |
| 20260505181333 | 88 | 206 | 5.0 | 11.0 | 0.00 | 0.00 | 0.00 | 67 | 1005.8 |
| 20260505180832 | 88 | 166 | 4.0 | 11.0 | 0.00 | 0.00 | 0.00 | 67 | 1005.8 |
| 20260505180333 | 88 | 169 | 5.0 | 12.0 | 0.00 | 0.00 | 0.00 | 67 | 1005.9 |
| 20260505175846 | 87 | 181 | 5.0 | 13.0 | 0.00 | 0.00 | 0.00 | 67 | 1006.0 |
| 20260505175333 | 87 | 176 | 5.0 | 13.0 | 0.00 | 0.00 | 0.00 | 69 | 1006.0 |
| 20260505174833 | 88 | 162 | 5.0 | 10.0 | 0.00 | 0.00 | 0.00 | 68 | 1006.1 |
| 20260505174333 | 88 | 173 | 4.0 | 8.0 | 0.00 | 0.00 | 0.00 | 68 | 1006.2 |
| 20260505173834 | 87 | 187 | 6.0 | 15.0 | 0.00 | 0.00 | 0.00 | 69 | 1006.2 |
| 20260505172840 | 87 | 185 | 4.0 | 13.0 | 0.00 | 0.00 | 0.00 | 68 | 1006.4 |
| 20260505171833 | 87 | 175 | 4.0 | 13.0 | 0.00 | 0.00 | 0.00 | 69 | 1006.6 |
| 20260505170833 | 86 | 179 | 4.0 | 13.0 | 0.00 | 0.00 | 0.00 | 70 | 1006.6 |
| 20260505170331 | 85 | 163 | 6.0 | 13.0 | 0.00 | 0.00 | 0.00 | 71 | 1006.7 |
| 20260505165834 | 85 | 188 | 8.0 | 15.0 | 0.00 | 0.00 | 0.00 | 73 | 1006.8 |
| 20260505165331 | 85 | 165 | 8.0 | 17.0 | 0.00 | 0.00 | 0.00 | 72 | 1006.8 |
| 20260505164831 | 85 | 183 | 7.0 | 17.0 | 0.00 | 0.00 | 0.00 | 73 | 1006.9 |
| 20260505164331 | 85 | 200 | 6.0 | 14.0 | 0.00 | 0.00 | 0.00 | 73 | 1006.9 |
| 20260505163831 | 85 | 193 | 6.0 | 14.0 | 0.00 | 0.00 | 0.00 | 73 | 1006.8 |
| 20260505163332 | 84 | 211 | 6.0 | 14.0 | 0.00 | 0.00 | 0.00 | 74 | 1006.8 |
| 20260505162831 | 84 | 209 | 7.0 | 13.0 | 0.00 | 0.00 | 0.00 | 75 | 1006.8 |
| 20260505162331 | 83 | 179 | 7.0 | 14.0 | 0.00 | 0.00 | 0.00 | 75 | 1006.9 |
| 20260505161831 | 83 | 159 | 6.0 | 14.0 | 0.00 | 0.00 | 0.00 | 76 | 1006.9 |
| 20260505161331 | 83 | 180 | 5.0 | 13.0 | 0.00 | 0.00 | 0.00 | 76 | 1006.9 |
| 20260505160831 | 83 | 180 | 5.0 | 13.0 | 0.00 | 0.00 | 0.00 | 76 | 1006.8 |
| 20260505160332 | 83 | 178 | 6.0 | 13.0 | 0.00 | 0.00 | 0.00 | 77 | 1006.9 |
| 20260505153326 | 81 | 173 | 7.0 | 16.0 | 0.00 | 0.00 | 0.00 | 80 | 1006.8 |
| 20260505152826 | 81 | 190 | 7.0 | 16.0 | 0.00 | 0.00 | 0.00 | 79 | 1006.7 |
| 20260505152327 | 81 | 130 | 7.0 | 14.0 | 0.00 | 0.00 | 0.00 | 80 | 1006.7 |
| 20260505151826 | 81 | 194 | 6.0 | 14.0 | 0.00 | 0.00 | 0.00 | 80 | 1006.7 |
| 20260505151326 | 81 | 210 | 6.0 | 16.0 | 0.00 | 0.00 | 0.00 | 82 | 1006.8 |
| 20260505150826 | 80 | 179 | 7.0 | 16.0 | 0.00 | 0.00 | 0.00 | 82 | 1006.7 |
| 20260505150326 | 80 | 130 | 6.0 | 14.0 | 0.00 | 0.00 | 0.00 | 82 | 1006.7 |
| 20260505140325 | 78 | 191 | 4.0 | 13.0 | 0.00 | 0.00 | 0.00 | 88 | 1006.9 |
| 20260505124818 | 75 | 179 | 4.0 | 7.0 | 0.00 | 0.00 | 0.00 | 92 | 1006.9 |
| 20260505123819 | 75 | 183 | 3.0 | 8.0 | 0.00 | 0.00 | 0.00 | 93 | 1006.9 |
| 20260505122816 | 75 | 173 | 3.0 | 5.0 | 0.00 | 0.00 | 0.00 | 93 | 1006.8 |
| 20260505122316 | 74 | 195 | 3.0 | 5.0 | 0.00 | 0.00 | 0.00 | 93 | 1006.7 |
| 20260505121807 | 74 | 186 | 3.0 | 6.0 | 0.00 | 0.00 | 0.00 | 93 | 1006.6 |
| 20260505121307 | 74 | 208 | 4.0 | 7.0 | 0.00 | 0.00 | 0.00 | 93 | 1006.6 |
| 20260505120807 | 74 | 169 | 4.0 | 9.0 | 0.00 | 0.00 | 0.00 | 93 | 1006.5 |
| 20260505120308 | 74 | 193 | 4.0 | 9.0 | 0.00 | 0.00 | 0.00 | 93 | 1006.4 |
| 20260505115808 | 74 | 190 | 4.0 | 9.0 | 0.00 | 0.00 | 0.00 | 93 | 1006.4 |
| 20260505114307 | 74 | 185 | 4.0 | 6.0 | 0.00 | 0.00 | 0.00 | 93 | 1006.5 |
| 20260505113807 | 74 | 170 | 3.0 | 6.0 | 0.00 | 0.00 | 0.00 | 93 | 1006.5 |
| 20260505113301 | 74 | 162 | 3.0 | 4.0 | 0.00 | 0.00 | 0.00 | 93 | 1006.5 |
| 20260505112802 | 74 | 185 | 3.0 | 5.0 | 0.00 | 0.00 | 0.00 | 93 | 1006.5 |
| 20260505112304 | 74 | 136 | 3.0 | 5.0 | 0.00 | 0.00 | 0.00 | 93 | 1006.5 |
| 20260505111802 | 74 | 164 | 3.0 | 6.0 | 0.00 | 0.00 | 0.00 | 93 | 1006.5 |
| 20260505111302 | 74 | 160 | 4.0 | 7.0 | 0.00 | 0.00 | 0.00 | 93 | 1006.5 |
| 20260505110802 | 74 | 176 | 4.0 | 7.0 | 0.00 | 0.00 | 0.00 | 93 | 1006.5 |
| 20260505110302 | 74 | 164 | 3.0 | 6.0 | 0.00 | 0.00 | 0.00 | 93 | 1006.5 |
| 20260505101300 | 74 | 130 | 4.0 | 6.0 | 0.00 | 0.00 | 0.00 | 93 | 1006.6 |
| 20260505100800 | 74 | 182 | 3.0 | 6.0 | 0.00 | 0.00 | 0.00 | 93 | 1006.6 |
| 20260505095757 | 74 | 161 | 4.0 | 8.0 | 0.00 | 0.00 | 0.00 | 93 | 1006.6 |
| 20260505095259 | 73 | 189 | 5.0 | 8.0 | 0.00 | 0.00 | 0.00 | 93 | 1006.6 |
| 20260505094759 | 73 | 152 | 4.0 | 9.0 | 0.00 | 0.00 | 0.00 | 93 | 1006.6 |
| 20260505094300 | 73 | 176 | 5.0 | 9.0 | 0.00 | 0.00 | 0.00 | 93 | 1006.6 |
| 20260505093300 | 73 | 189 | 4.0 | 8.0 | 0.00 | 0.00 | 0.00 | 93 | 1006.7 |
| 20260505092758 | 73 | 172 | 5.0 | 9.0 | 0.00 | 0.00 | 0.00 | 94 | 1006.7 |
| 20260505091755 | 73 | 178 | 6.0 | 10.0 | 0.00 | 0.00 | 0.00 | 94 | 1006.8 |
| 20260505091258 | 73 | 182 | 6.0 | 10.0 | 0.00 | 0.00 | 0.00 | 94 | 1006.8 |
| 20260505090755 | 72 | 173 | 5.0 | 9.0 | 0.00 | 0.00 | 0.00 | 94 | 1006.8 |
| 20260505090259 | 72 | 172 | 5.0 | 9.0 | 0.00 | 0.00 | 0.00 | 94 | 1006.9 |
| 20260505085755 | 72 | 161 | 5.0 | 9.0 | 0.00 | 0.00 | 0.00 | 95 | 1006.9 |
| 20260505085259 | 72 | 142 | 5.0 | 7.0 | 0.00 | 0.00 | 0.00 | 95 | 1006.8 |
| 20260505084756 | 72 | 155 | 4.0 | 9.0 | 0.00 | 0.00 | 0.00 | 95 | 1006.9 |
| 20260505084311 | 72 | 139 | 5.0 | 9.0 | 0.00 | 0.00 | 0.00 | 95 | 1006.9 |
| 20260505083258 | 71 | 157 | 5.0 | 7.0 | 0.00 | 0.00 | 0.00 | 95 | 1007.1 |